{"data":{"norad_id":48425,"intl_designator":"2021-039C","name":"YAOGAN-30 09C","alt_names":[],"object_type":"PAYLOAD","status":"ACTIVE","operator":null,"country":"PRC","launch_date":"2021-05-06","launch_site_code":"XICLF","launch_vehicle":null,"mission":null,"orbit_class":"UNKNOWN","rcs_meters":null,"size_class":null,"mass_kg":null,"dimensions":null,"purposes":[],"wikipedia_slug":null,"has_3d_model":false,"image_url":null,"decayed_at":null,"tle_current":{"epoch":"2026-09-20T04:21:17.716320Z","epoch_age_seconds":67456,"freshness":"FRESH","line1":"1 48425U 21039C   26263.18145505  .00001682  00000+0  12447-3 0  9993","line2":"2 48425  34.9946 171.5630 0001820 217.7272 142.3308 15.03048839293851","mean_motion":15.03048839,"eccentricity":0.000182,"inclination_deg":34.9946,"raan_deg":171.563,"arg_perigee_deg":217.7272,"mean_anomaly_deg":142.3308,"bstar":0.00012447,"rev_number":29385,"period_min":95.805270104067,"perigee_km":556.23917580901,"apogee_km":558.76374820918,"semimajor_km":6935.6384620091,"source":"CELESTRAK","updated_at":"2026-09-20T09:00:15.119950Z"}}}